sat.trackr.live / text

‹ back to catalog

STARLINK-31976

NORAD 59887 · 2024-100C

PAYLOAD ACTIVE UNKNOWN

§ Identity

Operator
Country
US
Launch date
2024-05-28
Launch site
AFETR
Launch vehicle
Mass (kg)
RCS (m²)

Purposes: comms

External: N2YO · Heavens-Above · Gunter

§ Orbital elements

Epoch: 2026-05-24T22:43:41.867040Z

Period
94.27 min
Inclination
43.0039°
Eccentricity
0.0000771
Mean motion
15.27590959 rev/d
Perigee alt
482.5 km
Apogee alt
483.5 km
Semi-major
6,861.2 km
B*
-7.1353e-5
RAAN
58.6694°
Arg perigee
263.1249°
Mean anomaly
96.9515°
Rev number
11,277

§ Raw data

STARLINK-319761 59887U 24100C   26144.94701235 -.00002225  00000+0 -71353-4 0  99972 59887  43.0039  58.6694 0000771 263.1249  96.9515 15.27590959112773

JSON: /api/v1/satellites/59887 · /tle

For live sub-satellite position, see the globe view (requires WebGL).

§ Visibility from observer

Set your observer location to see the next 7 days of passes ≥ 10°. The values pass through the URL so the page stays shareable.

No JS? Fill the form by hand. The geolocation button needs JavaScript.